Weather History for KPSC - April, 2013

Change the Weather History Date:

Wednesday, April 17, 2013

  Actual Average Record
Temperature  
Mean Temperature 42 °F 53 °F  
Max Temperature 61 °F 68 °F 89 °F (1994)
Min Temperature 22 °F 38 °F 22 °F (2013)
Degree Days  
Heating Degree Days 23 12  
Month to date heating degree days 233 225  
Since 1 July heating degree days 4416 4686  
Cooling Degree Days 0 0  
Month to date cooling degree days 0 0  
Year to date cooling degree days 0 0  
Moisture  
Dew Point 22 °F    
Average Humidity 56    
Maximum Humidity 96    
Minimum Humidity 16    
Precipitation  
Precipitation 0.00 in 0.02 in 0.40 in (1969)
Month to date precipitation 0.44 0.40  
Year to date precipitation 1.15 3.27  
Snow  
Snow 0.00 in - - ()
Snow Depth 0.00 in    
Sea Level Pressure  
Sea Level Pressure 30.41 in    
Wind  
Wind Speed 4 mph (ESE)    
Max Wind Speed 15 mph    
Max Gust Speed 16 mph    
Visibility 10 miles    
Events      
T = Trace of Precipitation, MM = Missing Value Source: NWS Daily Summary

Daily Weather History Graph

Daily Weather History Graph

Search for Another Location

Airport or City:

Trip Planner

Search our weather history database for the weather conditions in past years. The results will help you decide how hot, cold, wet, or windy it might be!

Date:

Astronomy

Apr. 17, 2013 Rise Set
Actual Time 6:05 AM PDT 7:47 PM PDT
Civil Twilight 5:33 AM PDT 8:18 PM PDT
Nautical Twilight 4:55 AM PDT 8:57 PM PDT
Astronomical Twilight 4:13 AM PDT 9:39 PM PDT
Moon 11:17 AM PDT (4/17) 1:34 AM PDT (4/17)
Length of Visible Light 14h 44m
Length of Day
13h 41m
Waxing Crescent, 43% of the Moon is Illuminated
Apr 17
Waxing Crescent
Apr 18
First Quarter
Apr 25
Full
May 2
Last Quarter
May 9
New

Hourly Weather History & Observations

Time (PDT) Temp. Windchill Dew Point Humidity Pressure Visibility Wind Dir Wind Speed Gust Speed Precip Events Conditions
12:53 AM 28.9 °F 22.8 °F 24.1 °F 82% 30.38 in 10.0 mi NNW 5.8 mph - N/A   Clear
1:53 AM 28.0 °F 22.8 °F 24.1 °F 85% 30.39 in 10.0 mi North 4.6 mph - N/A   Clear
2:53 AM 28.0 °F - 23.0 °F 81% 30.39 in 10.0 mi Calm Calm - N/A   Clear
3:53 AM 26.1 °F - 21.9 °F 84% 30.41 in 10.0 mi Calm Calm - N/A   Clear
4:53 AM 27.0 °F - 21.9 °F 81% 30.42 in 10.0 mi Calm Calm - N/A   Clear
5:53 AM 23.0 °F 18.4 °F 21.0 °F 92% 30.44 in 9.0 mi East 3.5 mph - N/A   Clear
7:53 AM 32.0 °F - 25.0 °F 75% 30.48 in 10.0 mi Calm Calm - N/A   Clear
8:53 AM 37.0 °F - 25.0 °F 62% 30.49 in 10.0 mi Calm Calm - N/A   Clear
9:53 AM 42.1 °F - 26.1 °F 53% 30.49 in 10.0 mi Calm Calm - N/A   Clear
10:53 AM 46.9 °F - 24.1 °F 41% 30.48 in 10.0 mi Calm Calm - N/A   Clear
11:53 AM 51.1 °F - 19.0 °F 28% 30.47 in 10.0 mi Variable 3.5 mph - N/A   Clear
12:53 PM 55.0 °F - 17.1 °F 23% 30.45 in 10.0 mi East 3.5 mph - N/A   Clear
1:53 PM 57.0 °F - 16.0 °F 20% 30.43 in 10.0 mi North 6.9 mph - N/A   Clear
2:53 PM 59.0 °F - 15.1 °F 18% 30.40 in 10.0 mi Variable 3.5 mph - N/A   Clear
3:53 PM 59.0 °F - 14.0 °F 17% 30.39 in 10.0 mi Calm Calm - N/A   Clear
4:53 PM 60.1 °F - 15.1 °F 17% 30.37 in 10.0 mi SSE 8.1 mph - N/A   Clear
5:53 PM 59.0 °F - 15.1 °F 18% 30.36 in 10.0 mi South 8.1 mph - N/A   Clear
6:53 PM 57.0 °F - 19.9 °F 24% 30.36 in 10.0 mi SE 11.5 mph - N/A   Clear
7:53 PM 54.0 °F - 24.1 °F 31% 30.35 in 10.0 mi SSE 6.9 mph - N/A   Clear
8:53 PM 51.1 °F - 24.1 °F 35% 30.35 in 10.0 mi SSE 4.6 mph - N/A   Mostly Cloudy
9:53 PM 46.0 °F 43.1 °F 34.0 °F 63% 30.37 in 10.0 mi North 5.8 mph - N/A   Overcast
10:53 PM 51.1 °F - 26.1 °F 38% 30.36 in 10.0 mi SE 8.1 mph - N/A   Overcast
11:53 PM 50.0 °F - 26.1 °F 39% 30.35 in 10.0 mi SSE 3.5 mph - N/A   Overcast